Temperature
21 21 21 21 18 17 19 20 20 21 20 21 20 20 19 18 18 18 17 17 18 18 17 17 17 17 17 17 17 17 17 17 17 17 17 17 17 17 17 17 17 17 17 17 17 17 18 18 18
21 21 21 20 17 18 19 20 20 21 21 21 20 20 19 18 17 17 17 17 18 18 17 17 17 17 17 17 17 17 17 17 17 17 17 17 17 17 17 17 17 17 17 17 17 17 17 17 17
21 21 21 17 18 18 20 20 20 21 22 21 20 19 18 18 17 17 17 17 17 17 17 17 17 17 17 17 17 17 17 17 17 17 17 17 17 17 17 17 17 17 17 17 17 17 17 17 17
21 21 20 18 19 19 20 20 20 21 21 20 19 18 18 18 18 17 17 17 17 17 17 17 17 17 17 17 17 17 17 17 17 17 17 17 17 17 17 17 17 17 17 17 17 17 17 17 17
21 21 18 18 19 20 20 21 21 20 20 19 19 18 17 18 18 17 17 17 18 17 17 17 17 17 17 17 17 17 17 17 17 17 17 17 17 17 17 17 17 17 17 17 17 17 17 17 17
21 18 17 18 19 20 20 21 21 20 20 19 19 17 17 17 17 17 17 17 18 17 17 17 17 17 17 17 17 17 17 17 16 16 16 17 16 16 16 16 16 16 16 17 17 17 17 17 17
20 17 18 19 19 20 21 21 21 20 19 19 19 17 17 17 17 17 17 17 17 17 17 17 17 17 17 17 17 16 16 16 16 16 16 16 16 16 16 16 16 16 16 16 16 16 16 16 16
22 17 18 18 19 20 21 21 21 21 20 20 19 17 17 17 17 17 17 17 17 17 17 17 17 17 17 16 16 16 16 16 16 16 16 16 16 16 16 16 16 16 16 16 16 16 16 16 16
22 17 17 19 19 20 21 21 21 21 20 19 19 19 18 18 17 17 17 17 17 17 17 17 17 17 16 16 16 16 16 16 16 16 16 16 16 16 16 16 16 16 16 16 16 16 16 16 16
20 17 19 20 20 20 20 20 20 20 19 18 18 18 18 18 17 17 17 17 17 17 17 17 17 17 16 16 16 16 16 16 16 16 16 16 16 16 16 16 16 16 16 16 16 16 16 16 16
20 18 20 20 21 21 21 20 21 19 18 18 18 18 18 18 18 17 17 17 17 17 17 17 17 17 17 16 16 16 16 16 16 16 16 16 16 16 16 16 16 16 16 16 16 16 16 16 16
20 20 21 21 22 21 21 20 20 20 19 20 20 19 18 18 18 18 17 17 17 17 17 17 17 17 16 16 16 16 16 16 16 16 16 16 16 16 16 16 16 16 16 16 16 15 16 16 16
20 20 21 21 22 21 21 20 20 19 20 19 19 19 18 18 18 18 18 17 17 17 17 17 17 17 16 16 16 16 16 16 16 16 16 16 16 15 15 15 15 15 15 15 15 15 15 15 15
21 21 21 21 21 21 20 20 19 19 19 19 19 18 18 18 18 18 18 17 17 17 17 17 17 17 16 16 16 16 16 16 15 15 15 15 15 15 15 15 15 15 15 15 15 15 15 15 15
21 20 20 20 21 21 20 19 19 19 19 19 18 18 18 18 18 18 18 18 17 17 17 17 17 16 16 16 16 16 16 16 15 15 15 15 15 15 15 15 15 15 15 15 15 15 15 15 15
20 19 19 20 20 21 20 18 18 20 19 18 18 18 18 18 18 18 18 18 17 17 17 17 16 16 16 16 16 16 16 16 15 15 15 15 15 15 15 15 15 15 15 15 15 15 15 15 15
19 18 18 19 20 20 19 18 18 19 19 18 18 18 18 18 18 18 18 18 17 17 17 17 16 16 16 16 16 16 15 15 15 15 15 15 15 15 15 15 15 15 15 15 15 15 15 15 15
18 18 19 19 20 20 18 18 18 19 19 18 18 18 18 18 18 18 18 18 17 17 17 17 16 16 16 16 16 15 15 15 15 15 15 15 15 15 15 15 15 15 15 15 15 15 15 15 15
20 19 19 19 20 19 18 18 17 18 18 17 17 18 18 18 18 18 18 18 17 17 17 17 16 16 16 16 16 15 15 15 15 15 15 15 15 14 14 14 14 14 14 14 14 14 14 14 14
20 19 19 20 20 20 18 18 17 17 17 18 17 17 18 18 18 18 17 17 17 17 17 17 16 16 16 16 16 15 15 15 15 14 14 14 14 14 14 14 14 14 14 14 14 14 14 14 14
20 20 19 20 20 19 18 17 17 17 18 18 18 18 18 18 17 17 17 17 17 17 17 16 16 16 16 16 15 15 15 15 14 14 14 14 14 14 14 14 14 14 14 14 13 13 13 13 13
19 20 20 20 18 17 18 16 17 16 16 16 17 17 17 17 17 17 17 17 17 16 16 16 16 16 16 15 15 15 15 15 14 14 14 14 14 14 14 14 13 13 13 13 13 13 13 13 13
20 21 20 20 18 17 17 16 16 16 16 16 16 16 17 17 17 17 17 17 16 16 16 16 16 16 15 15 15 15 15 14 14 14 14 14 14 14 13 13 13 13 13 13 13 13 13 13 13
20 19 18 16 16 17 17 16 15 15 16 16 16 16 16 17 17 17 16 16 16 16 16 16 16 15 15 15 15 15 14 14 14 14 14 13 13 13 13 13 13 13 13 13 12 12 12 12 12
19 16 16 16 15 16 17 16 15 16 16 16 16 16 17 17 16 16 16 16 16 16 16 15 15 15 15 15 15 14 14 14 14 14 13 13 13 13 13 13 13 13 12 12 12 12 12 12 12
18 17 16 16 15 16 16 16 16 17 17 17 17 17 17 16 16 16 16 16 16 16 15 15 15 15 14 14 14 14 14 14 13 13 13 13 13 13 13 12 12 12 12 12 12 12 12 11 11
18 17 17 15 16 16 15 16 16 17 16 16 16 16 16 16 16 16 16 16 15 15 15 15 15 15 14 14 14 14 14 13 13 13 13 13 13 12 12 12 12 12 12 12 11 11 11 11 11
19 17 15 15 16 15 15 15 15 16 16 16 15 15 16 16 16 16 16 15 15 15 15 15 14 14 14 14 14 13 13 13 13 12 12 12 12 12 12 12 12 11 11 11 11 11 11 11 11
18 18 16 14 15 15 15 15 16 16 16 15 15 15 16 16 16 16 16 15 15 15 15 14 14 14 14 13 13 13 13 13 12 12 12 12 12 11 11 11 11 11 11 11 11 11 10 10 10
18 18 16 15 15 14 14 14 16 15 15 15 15 15 15 15 16 15 15 15 15 14 14 14 14 13 13 13 13 13 12 12 12 12 12 11 11 11 11 11 11 11 11 11 10 10 10 10 10
Wind_Speed
4 3 3 4 6 6 3 1 2 3 4 5 9 10 9 6 4 5 2 5 7 5 5 6 8 9 9 9 9 10 10 11 11 11 11 11 11 12 12 12 12 11 11 11 11 11 11 11 11
2 1 4 5 6 4 2 1 5 5 6 7 8 8 8 7 5 6 3 5 7 6 5 6 8 9 9 9 9 10 10 11 11 12 12 11 12 12 12 12 11 11 11 11 11 11 11 11 11
1 1 4 5 4 4 3 2 5 6 6 5 5 6 5 4 4 3 4 6 7 6 6 7 8 9 8 9 9 10 11 11 12 12 12 12 11 11 11 11 11 11 10 11 11 11 11 11 11
3 4 5 6 5 1 4 3 4 5 6 6 6 6 4 3 3 4 6 7 7 5 6 7 8 8 8 8 9 10 11 11 12 12 12 12 11 11 11 11 11 11 11 10 10 10 10 10 10
4 5 6 4 2 1 1 2 4 6 4 5 7 6 4 3 7 8 7 7 8 5 5 7 8 8 8 8 10 11 11 12 12 12 12 12 12 12 11 11 11 11 11 10 10 10 10 10 10
4 5 5 3 1 1 2 3 6 8 6 6 7 6 3 3 7 7 7 6 7 6 5 7 8 8 8 10 11 12 12 12 12 11 11 11 11 11 11 10 10 10 10 10 10 9 9 9 9
5 4 3 3 2 1 2 2 5 6 5 3 5 6 4 3 5 6 6 7 6 6 5 5 6 8 9 11 12 12 11 11 11 10 10 10 10 9 9 9 9 10 9 9 9 9 9 10 9
5 5 3 1 2 1 1 2 4 5 4 4 4 7 5 5 6 6 6 6 5 5 5 5 5 6 7 8 9 10 9 9 9 9 8 8 7 7 7 7 8 8 8 8 8 9 9 9 9
5 5 2 2 3 2 2 4 3 4 6 4 4 4 7 9 8 7 6 4 4 5 4 4 3 4 5 6 7 7 7 7 6 5 7 6 5 4 4 5 6 6 7 7 8 7 8 8 8
5 4 3 3 3 3 3 4 3 4 5 5 6 6 9 9 9 8 7 6 5 5 4 3 3 3 4 4 5 4 4 5 5 4 4 4 4 3 3 3 4 5 6 6 7 7 7 6 6
4 5 3 2 3 4 4 3 2 6 3 5 10 11 10 8 8 8 7 7 6 6 5 4 3 4 4 4 4 4 4 4 4 4 3 3 4 3 4 3 3 4 5 5 5 6 6 6 5
4 2 3 2 2 3 3 3 3 3 5 8 12 12 10 9 8 8 7 6 6 6 5 5 4 4 4 4 3 4 3 3 3 3 3 3 3 3 2 2 3 3 3 3 4 4 5 5 5
3 2 2 3 3 3 5 4 4 2 6 9 10 10 9 8 7 6 7 6 6 6 6 5 5 5 4 4 3 4 3 3 3 3 4 4 3 2 2 2 2 3 3 3 3 3 4 4 5
3 3 2 3 3 3 5 2 3 4 9 10 9 9 9 8 8 6 5 5 5 6 6 5 5 5 5 4 3 3 3 4 4 4 4 5 4 3 3 2 2 3 4 4 4 3 3 3 4
3 3 2 1 3 3 5 2 3 7 10 10 9 9 8 8 8 8 8 7 7 6 7 6 6 5 5 5 4 4 4 5 4 4 6 6 5 4 4 3 3 3 4 5 5 5 4 4 4
2 3 0 4 3 3 5 3 5 6 10 9 8 7 7 7 8 8 8 7 7 7 7 7 7 6 5 4 4 4 4 5 4 5 6 7 7 7 5 4 3 4 5 4 4 4 4 4 4
2 1 3 4 3 3 4 4 6 6 9 9 8 7 7 7 6 7 8 8 8 7 7 7 6 7 5 4 4 4 5 4 4 5 6 6 7 8 6 4 3 5 4 3 3 4 3 3 3
4 3 4 5 4 4 4 4 5 6 8 8 8 7 7 7 8 8 8 8 8 7 7 7 6 6 6 4 4 4 4 3 4 4 5 6 7 7 6 4 4 5 4 4 3 3 3 3 2
5 3 4 5 4 4 5 5 6 6 6 6 7 7 7 7 6 7 7 7 7 6 7 7 7 6 5 4 4 3 2 1 2 3 5 6 6 7 6 4 4 4 4 3 3 3 4 3 3
3 3 2 3 2 3 3 3 4 6 7 9 10 9 9 7 5 6 6 6 6 7 7 7 7 7 5 4 4 3 3 2 1 2 4 6 7 6 6 5 3 3 3 4 4 3 2 2 3
2 4 4 3 1 1 2 2 3 4 2 3 6 8 8 10 10 8 7 6 6 6 7 7 6 6 5 5 4 4 3 3 2 2 2 3 5 6 5 5 4 3 3 3 2 3 3 1 2
4 4 4 2 2 2 3 2 6 4 3 4 4 6 7 7 7 7 7 6 7 6 5 6 6 6 5 5 5 6 4 3 2 2 1 2 4 4 5 5 4 3 2 2 2 2 2 2 1
4 3 2 2 2 1 1 3 6 2 4 5 5 6 7 8 9 9 8 7 7 6 6 6 6 5 4 5 5 6 4 3 2 2 2 2 2 3 4 4 4 3 2 2 2 2 2 2 1
1 3 5 4 3 2 4 4 5 4 7 6 6 6 7 8 9 8 7 6 6 6 6 6 7 5 5 5 5 4 5 4 4 2 2 1 1 1 2 4 3 3 2 2 2 2 3 2 2
4 5 3 4 3 4 2 2 5 6 5 7 8 7 8 8 9 9 7 6 7 7 7 6 7 5 4 5 5 4 4 5 4 3 3 2 1 1 1 2 2 2 2 2 2 2 2 2 2
3 7 6 4 4 4 2 3 4 4 2 3 6 7 7 8 8 9 9 8 7 8 8 7 6 5 5 5 4 4 4 3 2 3 3 3 2 2 2 2 2 2 2 2 2 2 1 2 2
3 3 7 6 2 1 2 3 4 2 1 2 5 6 7 8 8 9 8 8 7 7 7 8 7 6 5 5 4 4 4 4 3 2 2 2 1 2 2 2 2 1 2 2 3 2 1 1 1
5 5 5 4 2 2 3 3 4 4 3 2 4 5 6 6 6 7 7 7 6 6 6 6 7 6 5 4 4 4 3 4 3 3 2 1 1 1 2 2 2 1 2 2 2 1 1 2 1
2 2 4 4 4 4 3 5 4 6 6 5 5 5 5 6 6 6 6 6 5 5 6 6 5 5 4 4 4 4 3 3 4 3 2 2 1 1 1 2 2 1 1 2 2 1 1 2 1
5 5 6 4 3 4 3 5 4 4 4 5 4 4 4 5 6 6 5 5 4 4 4 5 4 4 4 5 4 4 4 4 4 3 2 2 2 2 2 2 2 2 1 1 2 1 1 1 1
Wind_Direction
313 340 74 66 61 57 59 23 120 89 66 66 74 81 84 68 84 122 164 139 132 129 121 112 102 102 99 94 90 86 84 84 84 85 83 84 85 86 85 83 82 82 81 78 77 77 73 73 75
339 16 59 57 78 79 35 66 86 94 131 119 79 73 76 72 77 106 118 139 128 127 121 114 108 103 100 97 92 90 88 88 87 87 85 84 84 85 85 83 82 82 83 81 79 77 75 73 76
338 45 75 69 90 135 148 140 115 94 89 96 80 58 72 93 98 120 153 142 125 119 117 117 112 108 104 101 96 94 91 89 89 89 85 83 84 86 86 83 82 81 81 81 80 77 76 76 77
61 44 57 74 89 150 160 175 141 106 66 59 95 71 62 65 110 131 136 128 121 114 117 122 115 109 106 105 103 98 94 91 90 88 85 82 82 85 87 84 83 82 82 82 82 80 78 78 77
65 71 66 70 80 94 122 133 114 95 87 78 90 89 63 38 104 120 125 123 122 120 120 123 117 111 104 104 108 104 99 95 92 89 87 84 84 85 87 85 83 83 83 83 82 83 83 80 79
55 66 83 92 93 86 75 98 101 93 103 103 97 101 92 103 118 128 125 122 126 130 124 120 115 111 102 102 107 105 100 96 95 93 89 86 85 85 86 85 84 83 83 81 79 81 83 81 78
103 91 110 128 110 67 115 102 103 109 103 106 116 108 126 143 144 137 130 124 123 123 115 106 112 112 104 99 104 104 100 98 96 95 93 91 88 87 86 84 84 82 82 81 78 77 78 79 78
126 101 81 102 121 87 81 76 96 103 101 111 108 129 157 178 155 132 123 120 119 112 111 106 108 110 106 103 104 106 106 104 100 97 94 96 94 91 87 84 85 85 83 81 79 76 74 74 74
88 83 111 171 153 161 116 88 66 73 95 81 83 129 155 149 138 123 112 101 111 110 111 119 115 116 120 118 107 103 103 100 99 95 88 82 79 78 76 80 85 86 84 80 76 75 74 70 68
84 118 182 190 167 153 122 111 120 81 78 78 79 95 127 135 137 135 135 135 136 136 139 139 138 128 119 121 109 101 92 85 88 91 84 80 82 80 78 74 72 77 80 73 67 66 69 67 65
118 154 165 145 164 142 118 105 108 115 111 155 145 146 147 143 143 148 152 154 156 154 149 148 142 126 114 104 112 99 88 82 77 75 88 89 73 67 61 56 50 55 65 62 55 53 54 60 69
116 143 148 148 129 109 129 123 88 133 172 168 156 154 154 156 159 165 161 159 151 146 151 150 144 125 120 115 108 107 100 92 83 71 80 91 77 70 72 60 47 52 55 54 56 59 56 60 68
113 161 157 144 108 115 111 115 118 137 147 146 146 150 158 163 167 169 164 158 149 147 151 152 143 136 125 115 112 107 109 102 101 85 82 96 90 85 94 79 61 59 61 69 74 72 66 64 68
149 139 137 132 117 117 113 122 110 170 149 147 152 162 167 168 166 161 160 158 150 144 144 146 142 138 129 125 120 116 113 102 89 80 79 86 95 97 105 88 77 71 75 83 83 78 79 76 79
108 87 33 193 153 149 110 54 187 179 157 158 166 169 171 175 172 174 177 166 160 153 143 141 136 131 132 128 120 111 106 96 79 76 76 79 84 91 95 93 81 71 74 78 76 66 69 70 65
62 79 242 259 178 171 125 220 237 185 160 167 176 178 176 183 184 182 176 161 155 149 142 144 135 128 126 125 113 104 95 91 81 81 76 72 78 84 83 83 78 78 78 77 78 65 61 56 52
33 183 228 258 214 168 146 217 234 195 168 175 183 188 184 186 183 174 167 161 158 155 145 140 132 131 131 123 109 102 95 90 81 80 77 75 78 83 87 81 73 77 75 65 74 61 66 62 44
219 220 227 227 228 171 179 222 225 202 179 183 186 191 187 184 187 173 166 161 156 150 143 141 130 130 129 119 101 87 79 76 73 74 78 82 77 83 86 79 67 72 74 62 61 64 54 64 54
201 211 240 243 226 174 194 210 217 205 192 186 191 191 187 190 188 170 163 159 149 145 145 147 141 148 142 131 122 112 111 102 71 69 78 83 83 85 83 74 67 70 75 72 70 74 59 40 47
206 203 258 282 245 173 190 220 220 212 206 197 193 190 188 182 169 166 165 162 160 162 162 158 156 157 154 152 148 144 140 127 112 74 69 78 87 88 88 81 80 75 76 61 60 71 70 42 47
245 194 213 233 284 45 110 324 260 247 225 202 191 187 183 180 175 173 171 171 156 160 169 165 166 159 155 148 127 106 83 66 57 62 63 61 91 95 92 88 83 81 85 81 73 79 92 79 14
245 231 210 207 135 245 165 240 269 236 225 217 200 187 187 182 170 168 163 162 161 168 161 151 154 150 149 144 139 138 142 149 177 168 130 91 91 99 100 95 92 91 88 82 68 80 83 102 59
225 230 212 212 178 268 217 173 275 238 227 228 207 187 184 183 171 171 169 166 162 158 152 144 132 129 132 135 147 148 144 156 145 123 104 92 78 84 92 97 93 92 86 79 69 66 68 86 104
184 33 30 47 74 289 239 179 266 237 220 212 203 192 182 179 175 173 168 155 146 142 140 135 128 128 133 133 138 145 147 140 128 127 130 119 82 66 73 91 87 90 88 86 89 85 80 82 90
82 82 30 2 6 261 254 157 251 254 219 196 193 190 180 175 174 170 163 155 155 151 147 141 137 137 139 138 140 142 143 144 148 158 156 144 122 100 126 105 105 104 102 99 90 87 79 87 92
189 145 156 195 227 274 333 207 261 279 229 175 171 175 172 173 175 175 174 167 164 160 154 148 145 147 150 151 155 148 136 134 144 152 154 161 176 183 165 129 108 98 89 84 82 84 73 74 86
157 178 174 154 210 241 277 285 312 358 37 118 147 159 175 179 177 175 171 166 164 163 165 160 156 156 162 159 150 140 138 138 139 144 145 157 167 158 129 120 117 100 91 93 93 77 61 76 75
167 153 100 124 173 249 272 253 246 252 240 182 156 166 177 169 164 167 169 169 169 172 169 163 161 167 168 162 159 149 152 148 142 127 127 133 123 112 124 128 126 115 102 96 99 86 68 80 55
159 137 131 145 165 170 237 261 241 210 200 182 180 182 175 164 163 167 166 166 164 163 163 165 165 159 158 160 155 146 151 149 138 136 141 145 135 122 138 141 132 122 131 129 116 124 106 100 59
174 177 153 164 224 178 187 259 292 201 181 169 171 172 170 165 167 162 160 155 151 158 163 167 166 161 166 164 155 156 154 151 147 147 151 139 133 124 133 127 123 118 117 133 141 152 136 139 142
Height
1494 1493 1492 1493 1497 1510 1514 1509 1504 1503 1503 1505 1504 1505 1509 1514 1517 1525 1523 1521 1521 1521 1521 1521 1520 1520 1519 1519 1519 1518 1517 1517 1517 1516 1516 1515 1515 1515 1515 1514 1514 1514 1514 1513 1512 1511 1510 1508 1505
1494 1493 1494 1494 1506 1520 1517 1508 1505 1503 1504 1505 1506 1509 1511 1515 1517 1519 1520 1521 1522 1522 1522 1521 1521 1520 1520 1519 1519 1518 1518 1518 1518 1517 1517 1516 1516 1516 1516 1516 1515 1515 1515 1514 1513 1512 1512 1511 1509
1495 1494 1496 1500 1511 1519 1515 1507 1505 1503 1504 1504 1508 1511 1514 1517 1519 1520 1521 1522 1522 1522 1522 1522 1521 1520 1520 1519 1519 1519 1519 1519 1518 1518 1518 1518 1517 1517 1517 1517 1517 1516 1516 1515 1515 1514 1514 1513 1512
1495 1497 1499 1507 1513 1510 1507 1506 1504 1504 1505 1507 1509 1514 1517 1520 1520 1520 1521 1522 1522 1522 1522 1522 1522 1521 1520 1518 1518 1518 1519 1519 1519 1519 1519 1519 1518 1518 1518 1518 1518 1517 1517 1517 1516 1516 1515 1515 1515
1496 1498 1506 1514 1513 1508 1505 1503 1504 1504 1507 1509 1510 1516 1519 1521 1521 1522 1522 1523 1523 1523 1523 1523 1522 1521 1519 1516 1515 1517 1519 1520 1520 1520 1520 1520 1520 1520 1520 1519 1519 1519 1518 1518 1517 1517 1517 1517 1517
1498 1501 1515 1519 1514 1508 1506 1504 1505 1506 1509 1511 1512 1516 1521 1522 1522 1523 1523 1523 1524 1523 1524 1523 1523 1522 1519 1516 1515 1518 1520 1521 1522 1522 1522 1521 1521 1521 1521 1521 1520 1520 1519 1519 1519 1519 1519 1518 1518
1500 1506 1514 1515 1514 1510 1507 1505 1506 1507 1510 1511 1512 1517 1521 1523 1523 1523 1524 1524 1524 1524 1524 1524 1524 1523 1521 1520 1519 1521 1522 1523 1523 1523 1523 1523 1523 1522 1522 1522 1522 1521 1521 1521 1520 1520 1520 1520 1520
1498 1505 1513 1515 1514 1511 1507 1506 1507 1508 1510 1512 1513 1516 1519 1522 1523 1524 1525 1525 1525 1525 1525 1525 1525 1524 1523 1523 1523 1523 1524 1524 1524 1524 1524 1524 1524 1524 1524 1523 1523 1523 1522 1522 1522 1521 1521 1521 1521
1499 1510 1517 1513 1512 1510 1506 1507 1509 1510 1510 1512 1513 1515 1517 1521 1523 1524 1525 1525 1526 1526 1526 1526 1526 1526 1525 1525 1525 1525 1525 1526 1526 1526 1525 1525 1525 1525 1525 1525 1525 1524 1524 1524 1523 1523 1523 1522 1522
1500 1513 1511 1506 1506 1507 1507 1507 1509 1511 1512 1513 1515 1516 1519 1521 1522 1523 1524 1525 1526 1526 1526 1527 1527 1527 1527 1527 1527 1527 1527 1527 1527 1527 1526 1526 1526 1526 1526 1526 1526 1525 1525 1525 1524 1524 1524 1524 1524
1501 1507 1505 1505 1505 1506 1507 1508 1509 1511 1514 1514 1514 1516 1519 1521 1522 1523 1524 1525 1525 1526 1527 1527 1528 1528 1528 1528 1528 1528 1528 1528 1528 1527 1527 1527 1527 1526 1526 1527 1527 1526 1526 1526 1525 1525 1525 1525 1524
1502 1503 1503 1504 1505 1505 1507 1508 1510 1510 1512 1513 1514 1516 1518 1520 1521 1523 1524 1525 1526 1526 1527 1528 1528 1528 1528 1529 1529 1529 1528 1528 1528 1528 1528 1528 1527 1527 1527 1527 1527 1527 1527 1527 1526 1526 1526 1526 1525
1503 1504 1503 1504 1504 1505 1506 1508 1510 1511 1512 1514 1515 1516 1518 1519 1521 1522 1524 1525 1526 1526 1527 1527 1528 1528 1529 1529 1529 1529 1529 1529 1529 1529 1529 1528 1527 1527 1527 1527 1527 1527 1527 1527 1527 1527 1527 1526 1526
1503 1503 1504 1504 1505 1506 1507 1509 1510 1512 1512 1514 1515 1516 1517 1519 1520 1522 1523 1524 1525 1526 1526 1527 1528 1529 1529 1529 1530 1530 1530 1530 1530 1529 1529 1528 1528 1527 1526 1527 1527 1528 1528 1528 1528 1527 1527 1527 1527
1503 1505 1506 1505 1505 1507 1508 1512 1510 1511 1512 1514 1515 1516 1517 1518 1519 1520 1521 1523 1524 1525 1526 1527 1528 1529 1529 1529 1530 1530 1530 1530 1530 1530 1529 1529 1528 1527 1527 1527 1528 1528 1528 1528 1528 1528 1528 1528 1528
1505 1510 1514 1507 1504 1506 1511 1518 1510 1510 1511 1513 1514 1515 1516 1517 1518 1520 1521 1522 1523 1525 1525 1527 1527 1528 1529 1529 1530 1530 1530 1530 1530 1530 1530 1530 1529 1528 1528 1528 1528 1528 1529 1529 1529 1528 1528 1528 1528
1511 1517 1516 1509 1504 1505 1509 1514 1509 1509 1510 1511 1513 1514 1515 1516 1517 1519 1520 1522 1523 1524 1525 1526 1527 1528 1529 1529 1530 1530 1531 1531 1531 1531 1530 1530 1530 1529 1528 1528 1528 1529 1529 1529 1529 1529 1528 1528 1528
1516 1515 1513 1511 1504 1504 1509 1511 1508 1508 1508 1510 1511 1512 1513 1514 1516 1518 1519 1521 1522 1523 1524 1525 1526 1528 1528 1529 1530 1530 1531 1531 1531 1531 1531 1531 1530 1529 1529 1529 1529 1529 1529 1529 1529 1529 1529 1529 1529
1506 1509 1511 1507 1501 1505 1508 1509 1508 1506 1507 1508 1510 1510 1511 1513 1515 1517 1518 1520 1521 1522 1524 1524 1526 1527 1528 1528 1529 1530 1530 1531 1531 1531 1531 1531 1531 1530 1530 1529 1529 1529 1529 1529 1529 1529 1528 1529 1529
1503 1508 1509 1505 1500 1503 1508 1509 1506 1505 1505 1505 1506 1508 1509 1511 1513 1515 1517 1518 1520 1521 1522 1524 1525 1526 1527 1528 1529 1529 1530 1531 1531 1531 1531 1531 1531 1531 1530 1530 1530 1529 1529 1529 1529 1529 1528 1528 1528
1503 1506 1506 1506 1502 1503 1508 1513 1509 1506 1505 1505 1505 1506 1507 1509 1511 1513 1515 1517 1518 1520 1521 1523 1524 1525 1526 1527 1528 1529 1530 1530 1531 1531 1531 1531 1531 1531 1530 1530 1530 1529 1529 1529 1529 1529 1528 1528 1528
1506 1498 1499 1501 1509 1516 1512 1526 1512 1507 1505 1504 1504 1505 1506 1508 1509 1511 1513 1515 1516 1518 1520 1521 1522 1524 1525 1526 1527 1528 1528 1529 1529 1530 1530 1530 1530 1530 1530 1530 1529 1529 1529 1529 1529 1528 1528 1528 1528
1499 1495 1497 1500 1507 1514 1513 1522 1517 1507 1507 1503 1502 1502 1504 1505 1507 1509 1511 1513 1515 1517 1518 1520 1521 1523 1524 1525 1526 1527 1527 1528 1529 1529 1529 1529 1530 1530 1529 1529 1529 1528 1528 1528 1528 1528 1527 1527 1527
1493 1497 1501 1507 1513 1523 1514 1520 1520 1509 1503 1500 1499 1500 1501 1503 1505 1507 1510 1512 1513 1515 1517 1518 1520 1521 1522 1523 1524 1525 1526 1526 1527 1528 1528 1528 1528 1528 1528 1528 1528 1527 1527 1527 1527 1526 1526 1526 1526
1497 1511 1525 1526 1531 1527 1512 1516 1515 1500 1495 1495 1496 1497 1499 1501 1504 1506 1508 1510 1511 1513 1515 1517 1518 1519 1521 1522 1523 1523 1524 1525 1525 1526 1526 1527 1527 1527 1527 1527 1526 1526 1526 1525 1525 1525 1525 1525 1525
1498 1506 1525 1533 1533 1525 1514 1517 1508 1496 1493 1493 1494 1495 1497 1499 1501 1503 1506 1508 1510 1512 1513 1515 1516 1518 1519 1520 1521 1522 1522 1523 1524 1524 1524 1525 1525 1525 1525 1525 1525 1525 1524 1524 1523 1523 1523 1523 1523
1498 1504 1504 1518 1519 1525 1521 1513 1503 1496 1494 1493 1494 1495 1496 1498 1500 1502 1504 1506 1508 1510 1511 1513 1514 1516 1517 1518 1519 1520 1520 1521 1521 1522 1523 1523 1523 1523 1523 1523 1523 1523 1523 1522 1522 1521 1521 1521 1521
1490 1496 1509 1517 1524 1530 1522 1517 1513 1501 1497 1495 1495 1495 1495 1497 1499 1500 1502 1504 1506 1508 1510 1511 1513 1514 1515 1516 1517 1518 1518 1519 1520 1520 1520 1521 1521 1521 1521 1521 1521 1521 1521 1520 1520 1520 1519 1519 1518
1493 1497 1504 1513 1516 1526 1528 1520 1498 1496 1494 1494 1494 1494 1494 1495 1497 1499 1501 1503 1505 1506 1508 1509 1511 1512 1513 1514 1515 1516 1516 1517 1518 1518 1518 1518 1519 1519 1519 1519 1519 1519 1518 1518 1518 1517 1517 1517 1516
1487 1492 1500 1513 1515 1517 1522 1517 1492 1492 1492 1492 1493 1493 1494 1495 1496 1497 1499 1501 1503 1504 1505 1507 1508 1510 1511 1512 1513 1513 1514 1515 1515 1515 1515 1516 1516 1516 1516 1516 1516 1516 1516 1515 1515 1515 1514 1514 1514